Year,Month,Day,Hour,Minute,Value (Times are PST for temperature in C)
2012,01,15,00,00,-3.10
2012,01,15,00,01,-3.10
2012,01,15,00,02,-3.10
2012,01,15,00,03,-3.10
2012,01,15,00,04,-3.10
2012,01,15,00,05,-3.10
2012,01,15,00,06,-3.10
2012,01,15,00,07,-3.10
2012,01,15,00,08,-3.10
2012,01,15,00,09,-3.10
2012,01,15,00,10,-3.10
2012,01,15,00,11,-3.10
2012,01,15,00,12,-3.20
2012,01,15,00,13,-3.20
2012,01,15,00,14,-3.20
2012,01,15,00,15,-3.20
2012,01,15,00,16,-3.20
2012,01,15,00,17,-3.20
2012,01,15,00,18,-3.20
2012,01,15,00,19,-3.20
2012,01,15,00,20,-3.20
2012,01,15,00,21,-3.20
2012,01,15,00,22,-3.30
2012,01,15,00,23,-3.20
2012,01,15,00,24,-3.30
2012,01,15,00,25,-3.30
2012,01,15,00,26,-3.30
2012,01,15,00,27,-3.30
2012,01,15,00,28,-3.30
2012,01,15,00,29,-3.30
2012,01,15,00,30,-3.30
2012,01,15,00,31,-3.30
2012,01,15,00,32,-3.30
2012,01,15,00,33,-3.30
2012,01,15,00,34,-3.30
2012,01,15,00,35,-3.30
2012,01,15,00,36,-3.30
2012,01,15,00,37,-3.30
2012,01,15,00,38,-3.30
2012,01,15,00,39,-3.30
2012,01,15,00,40,-3.30
2012,01,15,00,41,-3.30
2012,01,15,00,42,-3.30
2012,01,15,00,43,-3.30
2012,01,15,00,44,-3.30
2012,01,15,00,45,-3.30
2012,01,15,00,46,-3.30
2012,01,15,00,47,-3.30
2012,01,15,00,48,-3.30
2012,01,15,00,49,-3.30
2012,01,15,00,50,-3.30
2012,01,15,00,51,-3.30
2012,01,15,00,52,-3.30
2012,01,15,00,53,-3.30
2012,01,15,00,54,-3.30
2012,01,15,00,55,-3.30
2012,01,15,00,56,-3.30
2012,01,15,00,57,-3.30
2012,01,15,00,58,-3.30
2012,01,15,00,59,-3.30
2012,01,15,01,00,-3.30
2012,01,15,01,01,-3.40
2012,01,15,01,02,-3.40
2012,01,15,01,03,-3.40
2012,01,15,01,04,-3.40
2012,01,15,01,05,-3.40
2012,01,15,01,06,-3.40
2012,01,15,01,07,-3.50
2012,01,15,01,08,-3.50
2012,01,15,01,09,-3.50
2012,01,15,01,10,-3.50
2012,01,15,01,11,-3.60
2012,01,15,01,12,-3.50
2012,01,15,01,13,-3.50
2012,01,15,01,14,-3.60
2012,01,15,01,15,-3.50
2012,01,15,01,16,-3.60
2012,01,15,01,17,-3.50
2012,01,15,01,18,-3.50
2012,01,15,01,19,-3.50
2012,01,15,01,20,-3.50
2012,01,15,01,21,-3.50
2012,01,15,01,22,-3.50
2012,01,15,01,23,-3.50
2012,01,15,01,24,-3.50
2012,01,15,01,25,-3.50
2012,01,15,01,26,-3.50
2012,01,15,01,27,-3.40
2012,01,15,01,28,-3.40
2012,01,15,01,29,-3.40
2012,01,15,01,30,-3.40
2012,01,15,01,31,-3.40
2012,01,15,01,32,-3.40
2012,01,15,01,33,-3.40
2012,01,15,01,34,-3.40
2012,01,15,01,35,-3.40
2012,01,15,01,36,-3.30
2012,01,15,01,37,-3.30
2012,01,15,01,38,-3.30
2012,01,15,01,39,-3.30
2012,01,15,01,40,-3.30
2012,01,15,01,41,-3.30
2012,01,15,01,42,-3.30
2012,01,15,01,43,-3.30
2012,01,15,01,44,-3.30
2012,01,15,01,45,-3.30
2012,01,15,01,46,-3.30
2012,01,15,01,48,-3.30
2012,01,15,01,49,-3.30
2012,01,15,01,50,-3.30
2012,01,15,01,51,-3.20
2012,01,15,01,52,-3.20
2012,01,15,01,53,-3.20
2012,01,15,01,54,-3.20
2012,01,15,01,55,-3.20
2012,01,15,01,56,-3.20
2012,01,15,01,57,-3.20
2012,01,15,01,58,-3.20
2012,01,15,01,59,-3.20
2012,01,15,02,00,-3.20
2012,01,15,02,01,-3.20
2012,01,15,02,02,-3.20
2012,01,15,02,03,-3.20
2012,01,15,02,04,-3.20
2012,01,15,02,05,-3.20
2012,01,15,02,06,-3.20
2012,01,15,02,07,-3.20
2012,01,15,02,08,-3.20
2012,01,15,02,09,-3.20
2012,01,15,02,10,-3.20
2012,01,15,02,12,-3.20
2012,01,15,02,13,-3.10
2012,01,15,02,14,-3.10
2012,01,15,02,15,-3.20
2012,01,15,02,16,-3.10
2012,01,15,02,17,-3.10
2012,01,15,02,18,-3.10
2012,01,15,02,19,-3.10
2012,01,15,02,20,-3.10
2012,01,15,02,21,-3.10
2012,01,15,02,22,-3.10
2012,01,15,02,23,-3.10
2012,01,15,02,24,-3.10
2012,01,15,02,25,-3.10
2012,01,15,02,26,-3.10
2012,01,15,02,27,-3.10
2012,01,15,02,29,-3.10
2012,01,15,02,30,-3.00
2012,01,15,02,31,-3.10
2012,01,15,02,32,-3.00
2012,01,15,02,33,-3.00
2012,01,15,02,34,-3.00
2012,01,15,02,35,-3.00
2012,01,15,02,36,-3.00
2012,01,15,02,37,-2.90
2012,01,15,02,38,-2.90
2012,01,15,02,39,-2.90
2012,01,15,02,40,-2.90
2012,01,15,02,41,-2.90
2012,01,15,02,42,-2.90
2012,01,15,02,43,-2.90
2012,01,15,02,44,-2.90
2012,01,15,02,46,-2.80
2012,01,15,02,47,-2.80
2012,01,15,02,48,-2.80
2012,01,15,02,49,-2.80
2012,01,15,02,50,-2.80
2012,01,15,02,51,-2.80
2012,01,15,02,52,-2.80
2012,01,15,02,53,-2.80
2012,01,15,02,54,-2.80
2012,01,15,02,55,-2.80
2012,01,15,02,56,-2.80
2012,01,15,02,57,-2.80
2012,01,15,02,58,-2.70
2012,01,15,02,59,-2.70
2012,01,15,03,00,-2.70
2012,01,15,03,01,-2.70
2012,01,15,03,02,-2.70
2012,01,15,03,03,-2.70
2012,01,15,03,04,-2.70
2012,01,15,03,05,-2.70
2012,01,15,03,06,-2.70
2012,01,15,03,07,-2.70
2012,01,15,03,08,-2.70
2012,01,15,03,09,-2.70
2012,01,15,03,10,-2.70
2012,01,15,03,11,-2.70
2012,01,15,03,12,-2.70
2012,01,15,03,13,-2.60
2012,01,15,03,15,-2.60
2012,01,15,03,16,-2.60
2012,01,15,03,17,-2.60
2012,01,15,03,18,-2.60
2012,01,15,03,19,-2.60
2012,01,15,03,20,-2.60
2012,01,15,03,21,-2.60
2012,01,15,03,22,-2.60
2012,01,15,03,23,-2.60
2012,01,15,03,24,-2.60
2012,01,15,03,25,-2.60
2012,01,15,03,26,-2.50
2012,01,15,03,27,-2.50
2012,01,15,03,28,-2.50
2012,01,15,03,29,-2.50
2012,01,15,03,30,-2.50
2012,01,15,03,31,-2.40
2012,01,15,03,32,-2.40
2012,01,15,03,33,-2.40
2012,01,15,03,34,-2.40
2012,01,15,03,35,-2.40
2012,01,15,03,36,-2.40
2012,01,15,03,37,-2.40
2012,01,15,03,38,-2.40
2012,01,15,03,39,-2.40
2012,01,15,03,40,-2.40
2012,01,15,03,41,-2.40
2012,01,15,03,42,-2.30
2012,01,15,03,43,-2.40
2012,01,15,03,44,-2.30
2012,01,15,03,45,-2.30
2012,01,15,03,46,-2.30
2012,01,15,03,47,-2.30
2012,01,15,03,48,-2.30
2012,01,15,03,49,-2.30
2012,01,15,03,50,-2.30
2012,01,15,03,51,-2.30
2012,01,15,03,52,-2.30
2012,01,15,03,53,-2.30
2012,01,15,03,54,-2.30
2012,01,15,03,55,-2.30
2012,01,15,03,56,-2.30
2012,01,15,03,57,-2.30
2012,01,15,03,59,-2.30
2012,01,15,04,00,-2.30
2012,01,15,04,01,-2.30
2012,01,15,04,02,-2.30
2012,01,15,04,03,-2.30
2012,01,15,04,04,-2.30
2012,01,15,04,05,-2.30
2012,01,15,04,06,-2.30
2012,01,15,04,07,-2.30
2012,01,15,04,08,-2.30
2012,01,15,04,09,-2.30
2012,01,15,04,10,-2.30
2012,01,15,04,11,-2.30
2012,01,15,04,13,-2.30
2012,01,15,04,14,-2.30
2012,01,15,04,15,-2.30
2012,01,15,04,16,-2.40
2012,01,15,04,17,-2.40
2012,01,15,04,18,-2.30
2012,01,15,04,19,-2.40
2012,01,15,04,20,-2.40
2012,01,15,04,21,-2.40
2012,01,15,04,22,-2.40
2012,01,15,04,23,-2.40
2012,01,15,04,24,-2.40
2012,01,15,04,25,-2.40
2012,01,15,04,26,-2.40
2012,01,15,04,27,-2.40
2012,01,15,04,28,-2.40
2012,01,15,04,29,-2.40
2012,01,15,04,30,-2.40
2012,01,15,04,31,-2.40
2012,01,15,04,32,-2.50
2012,01,15,04,33,-2.50
2012,01,15,04,34,-2.50
2012,01,15,04,35,-2.50
2012,01,15,04,36,-2.50
2012,01,15,04,37,-2.50
2012,01,15,04,38,-2.50
2012,01,15,04,39,-2.50
2012,01,15,04,40,-2.50
2012,01,15,04,41,-2.50
2012,01,15,04,42,-2.50
2012,01,15,04,43,-2.50
2012,01,15,04,44,-2.50
2012,01,15,04,45,-2.50
2012,01,15,04,46,-2.50
2012,01,15,04,47,-2.40
2012,01,15,04,48,-2.40
2012,01,15,04,50,-2.40
2012,01,15,04,51,-2.40
2012,01,15,04,52,-2.40
2012,01,15,04,53,-2.40
2012,01,15,04,54,-2.40
2012,01,15,04,55,-2.40
2012,01,15,04,57,-2.40
2012,01,15,04,58,-2.40
2012,01,15,04,59,-2.40
2012,01,15,05,00,-2.40
2012,01,15,05,01,-2.40
2012,01,15,05,02,-2.40
2012,01,15,05,03,-2.40
2012,01,15,05,04,-2.40
2012,01,15,05,05,-2.40
2012,01,15,05,06,-2.40
2012,01,15,05,07,-2.40
2012,01,15,05,08,-2.30
2012,01,15,05,09,-2.30
2012,01,15,05,10,-2.30
2012,01,15,05,11,-2.30
2012,01,15,05,12,-2.30
2012,01,15,05,13,-2.30
2012,01,15,05,14,-2.30
2012,01,15,05,15,-2.30
2012,01,15,05,16,-2.30
2012,01,15,05,17,-2.30
2012,01,15,05,18,-2.30
2012,01,15,05,19,-2.30
2012,01,15,05,20,-2.30
2012,01,15,05,21,-2.30
2012,01,15,05,22,-2.30
2012,01,15,05,23,-2.30
2012,01,15,05,24,-2.30
2012,01,15,05,25,-2.30
2012,01,15,05,26,-2.30
2012,01,15,05,27,-2.30
2012,01,15,05,28,-2.30
2012,01,15,05,29,-2.30
2012,01,15,05,30,-2.30
2012,01,15,05,31,-2.30
2012,01,15,05,32,-2.40
2012,01,15,05,33,-2.40
2012,01,15,05,34,-2.40
2012,01,15,05,35,-2.40
2012,01,15,05,36,-2.40
2012,01,15,05,37,-2.40
2012,01,15,05,38,-2.40
2012,01,15,05,39,-2.40
2012,01,15,05,40,-2.40
2012,01,15,05,41,-2.40
2012,01,15,05,42,-2.40
2012,01,15,05,43,-2.40
2012,01,15,05,44,-2.40
2012,01,15,05,45,-2.40
2012,01,15,05,46,-2.40
2012,01,15,05,47,-2.40
2012,01,15,05,48,-2.40
2012,01,15,05,49,-2.40
2012,01,15,05,50,-2.40
2012,01,15,05,51,-2.40
2012,01,15,05,52,-2.40
2012,01,15,05,53,-2.40
2012,01,15,05,54,-2.40
2012,01,15,05,55,-2.40
2012,01,15,05,56,-2.40
2012,01,15,05,57,-2.40
2012,01,15,05,58,-2.40
2012,01,15,05,59,-2.40
2012,01,15,06,00,-2.40
2012,01,15,06,01,-2.40
2012,01,15,06,02,-2.40
2012,01,15,06,03,-2.40
2012,01,15,06,04,-2.40
2012,01,15,06,05,-2.40
2012,01,15,06,06,-2.50
2012,01,15,06,07,-2.50
2012,01,15,06,09,-2.50
2012,01,15,06,10,-2.50
2012,01,15,06,11,-2.50
2012,01,15,06,12,-2.50
2012,01,15,06,14,-2.60
2012,01,15,06,15,-2.60
2012,01,15,06,16,-2.60
2012,01,15,06,17,-2.60
2012,01,15,06,19,-2.60
2012,01,15,06,20,-2.60
2012,01,15,06,21,-2.60
2012,01,15,06,22,-2.60
2012,01,15,06,23,-2.60
2012,01,15,06,24,-2.60
2012,01,15,06,25,-2.60
2012,01,15,06,26,-2.60
2012,01,15,06,28,-2.60
2012,01,15,06,29,-2.60
2012,01,15,06,30,-2.60
2012,01,15,06,31,-2.60
2012,01,15,06,32,-2.60
2012,01,15,06,33,-2.70
2012,01,15,06,34,-2.70
2012,01,15,06,35,-2.70
2012,01,15,06,36,-2.70
2012,01,15,06,37,-2.70
2012,01,15,06,38,-2.70
2012,01,15,06,39,-2.70
2012,01,15,06,40,-2.70
2012,01,15,06,41,-2.70
2012,01,15,06,42,-2.70
2012,01,15,06,43,-2.70
2012,01,15,06,44,-2.70
2012,01,15,06,45,-2.70
2012,01,15,06,46,-2.70
2012,01,15,06,47,-2.70
2012,01,15,06,48,-2.70
2012,01,15,06,49,-2.70
2012,01,15,06,51,-2.70
2012,01,15,06,52,-2.70
2012,01,15,06,53,-2.70
2012,01,15,06,54,-2.70
2012,01,15,06,55,-2.70
2012,01,15,06,56,-2.70
2012,01,15,06,57,-2.70
2012,01,15,06,58,-2.70
2012,01,15,06,59,-2.70
2012,01,15,07,00,-2.70
2012,01,15,07,01,-2.70
2012,01,15,07,02,-2.70
2012,01,15,07,03,-2.70
2012,01,15,07,04,-2.70
2012,01,15,07,05,-2.70
2012,01,15,07,06,-2.70
2012,01,15,07,07,-2.70
2012,01,15,07,08,-2.70
2012,01,15,07,09,-2.70
2012,01,15,07,10,-2.70
2012,01,15,07,11,-2.70
2012,01,15,07,12,-2.70
2012,01,15,07,13,-2.70
2012,01,15,07,14,-2.70
2012,01,15,07,15,-2.70
2012,01,15,07,16,-2.80
2012,01,15,07,17,-2.70
2012,01,15,07,18,-2.70
2012,01,15,07,19,-2.70
2012,01,15,07,20,-2.70
2012,01,15,07,21,-2.70
2012,01,15,07,22,-2.70
2012,01,15,07,23,-2.70
2012,01,15,07,24,-2.70
2012,01,15,07,25,-2.70
2012,01,15,07,26,-2.70
2012,01,15,07,27,-2.70
2012,01,15,07,28,-2.70
2012,01,15,07,29,-2.70
2012,01,15,07,30,-2.70
2012,01,15,07,31,-2.70
2012,01,15,07,32,-2.70
2012,01,15,07,33,-2.70
2012,01,15,07,34,-2.70
2012,01,15,07,35,-2.70
2012,01,15,07,36,-2.70
2012,01,15,07,37,-2.70
2012,01,15,07,38,-2.70
2012,01,15,07,39,-2.70
2012,01,15,07,40,-2.70
2012,01,15,07,41,-2.70
2012,01,15,07,42,-2.70
2012,01,15,07,43,-2.70
2012,01,15,07,44,-2.70
2012,01,15,07,45,-2.70
2012,01,15,07,46,-2.70
2012,01,15,07,47,-2.70
2012,01,15,07,48,-2.70
2012,01,15,07,49,-2.70
2012,01,15,07,50,-2.70
2012,01,15,07,51,-2.70
2012,01,15,07,52,-2.80
2012,01,15,07,53,-2.70
2012,01,15,07,54,-2.80
2012,01,15,07,55,-2.80
2012,01,15,07,56,-2.70
2012,01,15,07,57,-2.70
2012,01,15,07,58,-2.70
2012,01,15,07,59,-2.70
2012,01,15,08,00,-2.70
2012,01,15,08,01,-2.80
2012,01,15,08,02,-2.80
2012,01,15,08,03,-2.70
2012,01,15,08,04,-2.70
2012,01,15,08,05,-2.80
2012,01,15,08,06,-2.70
2012,01,15,08,07,-2.70
2012,01,15,08,08,-2.70
2012,01,15,08,10,-2.70
2012,01,15,08,11,-2.70
2012,01,15,08,12,-2.70
2012,01,15,08,13,-2.70
2012,01,15,08,14,-2.70
2012,01,15,08,15,-2.70
2012,01,15,08,16,-2.70
2012,01,15,08,17,-2.70
2012,01,15,08,19,-2.70
2012,01,15,08,20,-2.70
2012,01,15,08,21,-2.70
2012,01,15,08,22,-2.70
2012,01,15,08,24,-2.70
2012,01,15,08,25,-2.70
2012,01,15,08,26,-2.70
2012,01,15,08,27,-2.70
2012,01,15,08,28,-2.70
2012,01,15,08,29,-2.70
2012,01,15,08,31,-2.70
2012,01,15,08,32,-2.70
2012,01,15,08,33,-2.70
2012,01,15,08,35,-2.70
2012,01,15,08,36,-2.70
2012,01,15,08,38,-2.70
2012,01,15,08,39,-2.70
2012,01,15,08,40,-2.70
2012,01,15,08,41,-2.70
2012,01,15,08,42,-2.70
2012,01,15,08,44,-2.70
2012,01,15,08,45,-2.70
2012,01,15,08,46,-2.70
2012,01,15,08,47,-2.70
2012,01,15,08,48,-2.70
2012,01,15,08,49,-2.70
2012,01,15,08,51,-2.70
2012,01,15,08,52,-2.70
2012,01,15,08,53,-2.70
2012,01,15,08,54,-2.70
2012,01,15,08,56,-2.70
2012,01,15,08,57,-2.70
2012,01,15,08,58,-2.70
2012,01,15,08,59,-2.70
2012,01,15,09,00,-2.70
2012,01,15,09,01,-2.70
2012,01,15,09,02,-2.70
2012,01,15,09,03,-2.70
2012,01,15,09,04,-2.70
2012,01,15,09,05,-2.70
2012,01,15,09,06,-2.70
2012,01,15,09,07,-2.70
2012,01,15,09,08,-2.70
2012,01,15,09,09,-2.70
2012,01,15,09,10,-2.70
2012,01,15,09,11,-2.70
2012,01,15,09,12,-2.70
2012,01,15,09,13,-2.70
2012,01,15,09,14,-2.70
2012,01,15,09,15,-2.70
2012,01,15,09,16,-2.70
2012,01,15,09,17,-2.70
2012,01,15,09,18,-2.70
2012,01,15,09,19,-2.70
2012,01,15,09,20,-2.70
2012,01,15,09,21,-2.70
2012,01,15,09,22,-2.70
2012,01,15,09,23,-2.70
2012,01,15,09,24,-2.70
2012,01,15,09,25,-2.70
2012,01,15,09,26,-2.70
2012,01,15,09,27,-2.70
2012,01,15,09,28,-2.60
2012,01,15,09,29,-2.60
2012,01,15,09,30,-2.60
2012,01,15,09,31,-2.70
2012,01,15,09,32,-2.60
2012,01,15,09,33,-2.60
2012,01,15,09,34,-2.60
2012,01,15,09,35,-2.60
2012,01,15,09,36,-2.60
2012,01,15,09,37,-2.60
2012,01,15,09,38,-2.60
2012,01,15,09,39,-2.60
2012,01,15,09,40,-2.60
2012,01,15,09,41,-2.60
2012,01,15,09,42,-2.60
2012,01,15,09,43,-2.60
2012,01,15,09,44,-2.60
2012,01,15,09,46,-2.60
2012,01,15,09,47,-2.60
2012,01,15,09,49,-2.60
2012,01,15,09,50,-2.60
2012,01,15,09,51,-2.60
2012,01,15,09,52,-2.60
2012,01,15,09,53,-2.60
2012,01,15,09,54,-2.60
2012,01,15,09,55,-2.60
2012,01,15,09,57,-2.60
2012,01,15,09,58,-2.60
2012,01,15,10,00,-2.60
2012,01,15,10,01,-2.60
2012,01,15,10,02,-2.60
2012,01,15,10,03,-2.60
2012,01,15,10,04,-2.50
2012,01,15,10,05,-2.50
2012,01,15,10,07,-2.50
2012,01,15,10,08,-2.50
2012,01,15,10,09,-2.50
2012,01,15,10,10,-2.50
2012,01,15,10,11,-2.50
2012,01,15,10,12,-2.50
2012,01,15,10,13,-2.60
2012,01,15,10,14,-2.60
2012,01,15,10,15,-2.60
2012,01,15,10,16,-2.60
2012,01,15,10,17,-2.60
2012,01,15,10,18,-2.60
2012,01,15,10,19,-2.60
2012,01,15,10,20,-2.60
2012,01,15,10,21,-2.60
2012,01,15,10,22,-2.60
2012,01,15,10,23,-2.60
2012,01,15,10,24,-2.60
2012,01,15,10,25,-2.60
2012,01,15,10,26,-2.60
2012,01,15,10,27,-2.60
2012,01,15,10,28,-2.60
2012,01,15,10,29,-2.60
2012,01,15,10,30,-2.60
2012,01,15,10,31,-2.60
2012,01,15,10,32,-2.60
2012,01,15,10,33,-2.60
2012,01,15,10,34,-2.60
2012,01,15,10,35,-2.60
2012,01,15,10,36,-2.60
2012,01,15,10,37,-2.60
2012,01,15,10,38,-2.60
2012,01,15,10,39,-2.60
2012,01,15,10,40,-2.60
2012,01,15,10,41,-2.60
2012,01,15,10,42,-2.60
2012,01,15,10,43,-2.60
2012,01,15,10,44,-2.60
2012,01,15,10,45,-2.60
2012,01,15,10,46,-2.60
2012,01,15,10,47,-2.60
2012,01,15,10,48,-2.60
2012,01,15,10,49,-2.60
2012,01,15,10,50,-2.60
2012,01,15,10,51,-2.60
2012,01,15,10,52,-2.60
2012,01,15,10,53,-2.60
2012,01,15,10,54,-2.60
2012,01,15,10,55,-2.60
2012,01,15,10,56,-2.60
2012,01,15,10,57,-2.60
2012,01,15,10,58,-2.60
2012,01,15,10,59,-2.60
2012,01,15,11,00,-2.60
2012,01,15,11,01,-2.60
2012,01,15,11,02,-2.60
2012,01,15,11,03,-2.60
2012,01,15,11,04,-2.60
2012,01,15,11,05,-2.60
2012,01,15,11,06,-2.60
2012,01,15,11,07,-2.60
2012,01,15,11,08,-2.60
2012,01,15,11,09,-2.60
2012,01,15,11,10,-2.60
2012,01,15,11,11,-2.60
2012,01,15,11,12,-2.60
2012,01,15,11,13,-2.60
2012,01,15,11,14,-2.60
2012,01,15,11,15,-2.60
2012,01,15,11,16,-2.60
2012,01,15,11,17,-2.60
2012,01,15,11,18,-2.60
2012,01,15,11,19,-2.60
2012,01,15,11,20,-2.70
2012,01,15,11,21,-2.70
2012,01,15,11,22,-2.70
2012,01,15,11,23,-2.70
2012,01,15,11,24,-2.70
2012,01,15,11,25,-2.70
2012,01,15,11,26,-2.70
2012,01,15,11,27,-2.70
2012,01,15,11,28,-2.70
2012,01,15,11,30,-2.70
2012,01,15,11,31,-2.70
2012,01,15,11,32,-2.70
2012,01,15,11,34,-2.70
2012,01,15,11,36,-2.60
2012,01,15,11,37,-2.70
2012,01,15,11,38,-2.60
2012,01,15,11,40,-2.60
2012,01,15,11,41,-2.60
2012,01,15,11,42,-2.60
2012,01,15,11,43,-2.60
2012,01,15,11,44,-2.60
2012,01,15,11,45,-2.60
2012,01,15,11,47,-2.50
2012,01,15,11,48,-2.50
2012,01,15,11,49,-2.50
2012,01,15,11,50,-2.40
2012,01,15,11,51,-2.40
2012,01,15,11,53,-2.40
2012,01,15,11,55,-2.30
2012,01,15,11,56,-2.30
2012,01,15,11,57,-2.30
2012,01,15,11,58,-2.20
2012,01,15,11,59,-2.30
2012,01,15,12,00,-2.20
2012,01,15,12,01,-2.20
2012,01,15,12,02,-2.20
2012,01,15,12,03,-2.10
2012,01,15,12,04,-2.10
2012,01,15,12,05,-2.10
2012,01,15,12,06,-2.00
2012,01,15,12,07,-1.90
2012,01,15,12,08,-1.80
2012,01,15,12,09,-1.80
2012,01,15,12,10,-1.70
2012,01,15,12,11,-1.70
2012,01,15,12,12,-1.60
2012,01,15,12,13,-1.50
2012,01,15,12,14,-1.50
2012,01,15,12,15,-1.40
2012,01,15,12,16,-1.40
2012,01,15,12,17,-1.40
2012,01,15,12,18,-1.40
2012,01,15,12,19,-1.30
2012,01,15,12,20,-1.30
2012,01,15,12,21,-1.30
2012,01,15,12,22,-1.20
2012,01,15,12,23,-1.20
2012,01,15,12,24,-1.20
2012,01,15,12,25,-1.20
2012,01,15,12,26,-1.20
2012,01,15,12,27,-1.20
2012,01,15,12,28,-1.20
2012,01,15,12,29,-1.20
2012,01,15,12,30,-1.10
2012,01,15,12,31,-1.10
2012,01,15,12,32,-1.10
2012,01,15,12,33,-1.10
2012,01,15,12,34,-1.10
2012,01,15,12,35,-1.00
2012,01,15,12,36,-0.90
2012,01,15,12,37,-0.90
2012,01,15,12,38,-0.80
2012,01,15,12,39,-0.80
2012,01,15,12,40,-0.80
2012,01,15,12,41,-0.80
2012,01,15,12,42,-0.80
2012,01,15,12,43,-0.70
2012,01,15,12,44,-0.70
2012,01,15,12,45,-0.70
2012,01,15,12,46,-0.60
2012,01,15,12,47,-0.60
2012,01,15,12,48,-0.60
2012,01,15,12,49,-0.50
2012,01,15,12,50,-0.50
2012,01,15,12,51,-0.40
2012,01,15,12,52,-0.30
2012,01,15,12,53,-0.30
2012,01,15,12,54,-0.20
2012,01,15,12,55,-0.20
2012,01,15,12,56,-0.20
2012,01,15,12,57,-0.10
2012,01,15,12,58,-0.10
2012,01,15,12,59,-0.10
2012,01,15,13,01,-0.10
2012,01,15,13,02,-0.10
2012,01,15,13,03,-0.10
2012,01,15,13,04,-0.10
2012,01,15,13,05,-0.10
2012,01,15,13,06,-0.10
2012,01,15,13,07,-0.10
2012,01,15,13,08,0.00
2012,01,15,13,09,0.00
2012,01,15,13,10,0.00
2012,01,15,13,11,0.10
2012,01,15,13,12,0.10
2012,01,15,13,14,0.10
2012,01,15,13,15,0.20
2012,01,15,13,16,0.20
2012,01,15,13,17,0.20
2012,01,15,13,18,0.20
2012,01,15,13,20,0.30
2012,01,15,13,21,0.30
2012,01,15,13,22,0.30
2012,01,15,13,23,0.40
2012,01,15,13,24,0.40
2012,01,15,13,25,0.50
2012,01,15,13,26,0.60
2012,01,15,13,27,0.60
2012,01,15,13,28,0.70
2012,01,15,13,29,0.70
2012,01,15,13,30,0.70
2012,01,15,13,31,0.70
2012,01,15,13,32,0.70
2012,01,15,13,33,0.70
2012,01,15,13,35,0.70
2012,01,15,13,36,0.70
2012,01,15,13,37,0.70
2012,01,15,13,38,0.70
2012,01,15,13,39,0.70
2012,01,15,13,40,0.70
2012,01,15,13,41,0.70
2012,01,15,13,42,0.60
2012,01,15,13,43,0.70
2012,01,15,13,44,0.60
2012,01,15,13,46,0.60
2012,01,15,13,47,0.60
2012,01,15,13,48,0.50
2012,01,15,13,50,0.50
2012,01,15,13,51,0.50
2012,01,15,13,52,0.50
2012,01,15,13,53,0.50
2012,01,15,13,54,0.60
2012,01,15,13,56,0.60
2012,01,15,13,57,0.60
2012,01,15,13,58,0.60
2012,01,15,13,59,0.60
2012,01,15,14,00,0.70
2012,01,15,14,01,0.70
2012,01,15,14,03,0.80
2012,01,15,14,04,0.90
2012,01,15,14,05,0.90
2012,01,15,14,06,0.90
2012,01,15,14,08,1.00
2012,01,15,14,09,1.00
2012,01,15,14,10,1.00
2012,01,15,14,11,1.10
2012,01,15,14,12,1.10
2012,01,15,14,13,1.10
2012,01,15,14,14,1.10
2012,01,15,14,16,1.10
2012,01,15,14,17,1.10
2012,01,15,14,18,1.10
2012,01,15,14,20,1.20
2012,01,15,14,21,1.10
2012,01,15,14,22,1.10
2012,01,15,14,23,1.10
2012,01,15,14,24,1.10
2012,01,15,14,25,1.10
2012,01,15,14,27,1.20
2012,01,15,14,28,1.20
2012,01,15,14,29,1.30
2012,01,15,14,30,1.30
2012,01,15,14,31,1.30
2012,01,15,14,33,1.30
2012,01,15,14,34,1.30
2012,01,15,14,35,1.30
2012,01,15,14,36,1.30
2012,01,15,14,37,1.30
2012,01,15,14,39,1.30
2012,01,15,14,40,1.30
2012,01,15,14,41,1.30
2012,01,15,14,42,1.30
2012,01,15,14,43,1.40
2012,01,15,14,44,1.60
2012,01,15,14,46,1.70
2012,01,15,14,47,1.70
2012,01,15,14,48,1.70
2012,01,15,14,49,1.70
2012,01,15,14,50,1.60
2012,01,15,14,52,1.60
2012,01,15,14,54,1.60
2012,01,15,14,55,1.50
2012,01,15,14,56,1.60
2012,01,15,14,57,1.60
2012,01,15,14,58,1.60
2012,01,15,14,59,1.70
2012,01,15,15,00,1.70
2012,01,15,15,02,1.70
2012,01,15,15,03,1.70
2012,01,15,15,04,1.70
2012,01,15,15,05,1.60
2012,01,15,15,06,1.60
2012,01,15,15,07,1.60
2012,01,15,15,09,1.50
2012,01,15,15,10,1.50
2012,01,15,15,11,1.50
2012,01,15,15,12,1.50
2012,01,15,15,13,1.60
2012,01,15,15,15,1.60
2012,01,15,15,17,1.70
2012,01,15,15,18,1.70
2012,01,15,15,19,1.70
2012,01,15,15,21,1.80
2012,01,15,15,22,1.80
2012,01,15,15,23,1.80
2012,01,15,15,24,1.80
2012,01,15,15,25,1.80
2012,01,15,15,26,1.70
2012,01,15,15,27,1.70
2012,01,15,15,28,1.70
2012,01,15,15,29,1.70
2012,01,15,15,30,1.70
2012,01,15,15,31,1.70
2012,01,15,15,32,1.70
2012,01,15,15,33,1.70
2012,01,15,15,35,1.80
2012,01,15,15,37,1.80
2012,01,15,15,38,1.80
2012,01,15,15,39,1.70
2012,01,15,15,40,1.70
2012,01,15,15,41,1.70
2012,01,15,15,42,1.70
2012,01,15,15,43,1.70
2012,01,15,15,44,1.70
2012,01,15,15,45,1.70
2012,01,15,15,46,1.60
2012,01,15,15,47,1.60
2012,01,15,15,48,1.50
2012,01,15,15,49,1.40
2012,01,15,15,50,1.40
2012,01,15,15,51,1.40
2012,01,15,15,52,1.30
2012,01,15,15,53,1.40
2012,01,15,15,54,1.40
2012,01,15,15,55,1.40
2012,01,15,15,56,1.50
2012,01,15,15,57,1.50
2012,01,15,15,58,1.60
2012,01,15,15,59,1.60
2012,01,15,16,00,1.60
2012,01,15,16,01,1.60
2012,01,15,16,02,1.60
2012,01,15,16,03,1.60
2012,01,15,16,04,1.60
2012,01,15,16,05,1.50
2012,01,15,16,06,1.50
2012,01,15,16,07,1.40
2012,01,15,16,08,1.40
2012,01,15,16,09,1.40
2012,01,15,16,10,1.30
2012,01,15,16,11,1.30
2012,01,15,16,12,1.30
2012,01,15,16,13,1.30
2012,01,15,16,14,1.30
2012,01,15,16,15,1.30
2012,01,15,16,16,1.30
2012,01,15,16,17,1.20
2012,01,15,16,18,1.20
2012,01,15,16,19,1.10
2012,01,15,16,20,1.10
2012,01,15,16,21,1.00
2012,01,15,16,22,1.00
2012,01,15,16,23,0.90
2012,01,15,16,25,0.80
2012,01,15,16,26,0.80
2012,01,15,16,27,0.80
2012,01,15,16,28,0.70
2012,01,15,16,30,0.60
2012,01,15,16,31,0.60
2012,01,15,16,32,0.60
2012,01,15,16,33,0.50
2012,01,15,16,34,0.40
2012,01,15,16,35,0.40
2012,01,15,16,37,0.30
2012,01,15,16,38,0.30
2012,01,15,16,39,0.30
2012,01,15,16,40,0.30
2012,01,15,16,41,0.30
2012,01,15,16,43,0.20
2012,01,15,16,44,0.20
2012,01,15,16,45,0.20
2012,01,15,16,46,0.20
2012,01,15,16,47,0.20
2012,01,15,16,48,0.20
2012,01,15,16,49,0.20
2012,01,15,16,50,0.20
2012,01,15,16,51,0.10
2012,01,15,16,52,0.10
2012,01,15,16,53,0.10
2012,01,15,16,54,0.10
2012,01,15,16,55,0.00
2012,01,15,16,56,0.00
2012,01,15,16,57,-0.10
2012,01,15,16,58,-0.10
2012,01,15,16,59,-0.20
2012,01,15,17,00,-0.20
2012,01,15,17,01,-0.30
2012,01,15,17,02,-0.30
2012,01,15,17,03,-0.40
2012,01,15,17,04,-0.40
2012,01,15,17,05,-0.50
2012,01,15,17,06,-0.60
2012,01,15,17,07,-0.60
2012,01,15,17,08,-0.60
2012,01,15,17,09,-0.70
2012,01,15,17,10,-0.70
2012,01,15,17,11,-0.70
2012,01,15,17,13,-0.80
2012,01,15,17,14,-0.80
2012,01,15,17,16,-0.90
2012,01,15,17,17,-0.90
2012,01,15,17,18,-0.90
2012,01,15,17,19,-1.00
2012,01,15,17,20,-1.10
2012,01,15,17,21,-1.10
2012,01,15,17,22,-1.10
2012,01,15,17,23,-1.10
2012,01,15,17,24,-1.10
2012,01,15,17,25,-1.20
2012,01,15,17,26,-1.20
2012,01,15,17,28,-1.20
2012,01,15,17,29,-1.20
2012,01,15,17,30,-1.30
2012,01,15,17,31,-1.30
2012,01,15,17,32,-1.30
2012,01,15,17,33,-1.30
2012,01,15,17,34,-1.30
2012,01,15,17,36,-1.30
2012,01,15,17,37,-1.30
2012,01,15,17,38,-1.30
2012,01,15,17,40,-1.30
2012,01,15,17,41,-1.30
2012,01,15,17,42,-1.40
2012,01,15,17,43,-1.40
2012,01,15,17,44,-1.40
2012,01,15,17,45,-1.40
2012,01,15,17,46,-1.40
2012,01,15,17,47,-1.40
2012,01,15,17,48,-1.40
2012,01,15,17,49,-1.50
2012,01,15,17,50,-1.50
2012,01,15,17,51,-1.50
2012,01,15,17,52,-1.50
2012,01,15,17,53,-1.60
2012,01,15,17,54,-1.60
2012,01,15,17,55,-1.60
2012,01,15,17,56,-1.60
2012,01,15,17,57,-1.60
2012,01,15,17,58,-1.60
2012,01,15,17,59,-1.60
2012,01,15,18,00,-1.70
2012,01,15,18,01,-1.70
2012,01,15,18,03,-1.70
2012,01,15,18,05,-1.70
2012,01,15,18,06,-1.70
2012,01,15,18,07,-1.70
2012,01,15,18,08,-1.70
2012,01,15,18,09,-1.70
2012,01,15,18,11,-1.80
2012,01,15,18,12,-1.80
2012,01,15,18,13,-1.80
2012,01,15,18,15,-1.80
2012,01,15,18,16,-1.80
2012,01,15,18,17,-1.80
2012,01,15,18,19,-1.80
2012,01,15,18,20,-1.90
2012,01,15,18,22,-1.90
2012,01,15,18,23,-1.90
2012,01,15,18,24,-1.90
2012,01,15,18,25,-1.90
2012,01,15,18,26,-2.00
2012,01,15,18,27,-2.00
2012,01,15,18,28,-2.00
2012,01,15,18,29,-2.10
2012,01,15,18,30,-2.10
2012,01,15,18,31,-2.10
2012,01,15,18,32,-2.10
2012,01,15,18,33,-2.10
2012,01,15,18,34,-2.20
2012,01,15,18,35,-2.20
2012,01,15,18,36,-2.20
2012,01,15,18,37,-2.20
2012,01,15,18,38,-2.20
2012,01,15,18,39,-2.20
2012,01,15,18,40,-2.30
2012,01,15,18,41,-2.30
2012,01,15,18,42,-2.30